Flag for Canada Weather past 2 weeks in Mississauga, Ontario, Canada

Now
34 °F

Light snow. Overcast.


Feels Like: 22 °F
Forecast: N/A
Wind: 21 mph from West

Location: Toronto Pearson International Airport

Current Time: Dec 17, 2014 at 6:26:41 PM

Latest Report: Dec 17, 2014 at 5:00 PM


Visibility: 9 mi

Pressure: 29.92 "Hg

Humidity: 87%

Dew point: 30 °F

Location of MississaugaLocation

Historic Weather in Mississauga — Graph

°F

Mississauga temperature yesterday

Maximum temperature yesterday: 39 °F (at 1:00 PM)
Minimum temperature yesterday: 36 °F (at 4:00 AM)
Average temperature yesterday: 38 °F

Past Weeks' High & Low Weather Summary

 TemperatureHumidityPressure
High41 °F (Dec 6, 1:00 PM)100% (Dec 2, 11:51 PM)30.81 "Hg (Dec 2, 11:51 PM)
Low21 °F (Dec 7, 6:00 AM)34% (Dec 7, 1:00 PM)29.73 "Hg (Dec 16, 2:00 PM)
Average33 °F81%30.13 "Hg
* Reported Dec 2 5:00 PM — Dec 17 5:00 PM, Mississauga, Weather by CustomWeather, © 2014

Note: Actual official high and low records may vary slightly from our data, if they occured in-between our weather recording intervals... More about our weather records

Advertising

Mississauga weather history for previous 24 hours

 ConditionsComfort  
Time TempWeatherWind HumidityBarometerVisibility
5:00 PM
Dec 17
34 °FLight snow. Overcast.21 mph87%29.92 "Hg9 mi
4:52 PM36 °FLight snow. Overcast.22 mph81%29.92 "Hg8 mi
4:00 PM36 °FMore clouds than sun.20 mph81%29.90 "Hg15 mi
3:00 PM37 °FMore clouds than sun.20 mph81%29.89 "Hg15 mi
2:00 PM37 °FMostly cloudy.18 mph81%29.87 "Hg15 mi
1:00 PM36 °FLight rain. Overcast.17 mph87%29.87 "Hg8 mi
12:00 PM36 °FLight rain. Overcast.16 mph87%29.87 "Hg9 mi
11:00 AM36 °FLight rain. Overcast.18 mph87%29.88 "Hg5 mi
10:49 AM36 °FLight rain. Overcast.16 mph87%29.88 "Hg5 mi
10:00 AM37 °FLight rain. Overcast.17 mph81%29.87 "Hg12 mi
9:00 AM37 °FLight rain. Overcast.16 mph87%29.85 "Hg15 mi
8:00 AM39 °FLight rain. Mostly cloudy.18 mph87%29.82 "Hg15 mi
7:48 AM39 °FLow clouds.21 mph87%29.82 "Hg15 mi
7:00 AM41 °FMostly cloudy.13 mph87%29.80 "Hg15 mi
6:49 AM41 °FOvercast.14 mph87%29.80 "Hg12 mi
6:00 AM41 °FMostly cloudy.10 mph87%29.79 "Hg12 mi
5:00 AM41 °FMostly cloudy.13 mph87%29.78 "Hg10 mi
4:00 AM41 °FOvercast.9 mph93%29.77 "Hg10 mi
3:48 AM41 °FMostly cloudy.9 mph93%29.78 "Hg10 mi
3:00 AM39 °FLight rain. Overcast.5 mph100%29.77 "Hg10 mi
2:00 AM39 °FLight rain. Mostly cloudy.2 mph100%29.76 "Hg8 mi
1:00 AM39 °FLight rain. Fog.5 mph100%29.75 "Hg6 mi
12:00 AM39 °FFog.5 mph100%29.75 "Hg6 mi
11:00 PM
Dec 16
39 °FDrizzle. Fog.3 mph100%29.75 "Hg4 mi
10:00 PM39 °FDrizzle. Fog.No wind100%29.74 "Hg4 mi
9:00 PM39 °FLight rain. Fog.2 mph100%29.74 "Hg2 mi
8:00 PM39 °FChilly.2 mph100%29.75 "Hg2 mi
7:45 PM39 °FLight rain. Fog.3 mph100%29.75 "Hg2 mi
7:00 PM39 °FLight rain. Fog.6 mph100%29.74 "Hg5 mi
6:00 PM39 °FLight rain. Fog.6 mph100%29.74 "Hg6 mi
Weather by CustomWeather, © 2014

See weather overviewHow to use our weather pages